Houghton Lake, MI

4:49 PM EDT on July 27, 2017 (GMT -0400)
Roscommon County

Weather History for KHTL - March, 2012

Change the Weather History Date:

Monday, March 12, 2012

  Actual Average Record
Temperature  
Mean Temperature 44 °F 27 °F  
Max Temperature 53 °F 38 °F 64 °F (1990)
Min Temperature 34 °F 17 °F -16 °F (1948)
Degree Days  
Heating Degree Days 21 38  
Month to date heating degree days 390 477  
Since 1 July heating degree days 5383 6349  
Cooling Degree Days 0 0  
Month to date cooling degree days 0 0  
Year to date cooling degree days 0 0  
Moisture  
Dew Point 43 °F    
Average Humidity 77    
Maximum Humidity 100    
Minimum Humidity 53    
Precipitation  
Precipitation 0.77 in 0.05 in 1.40 in (1923)
Month to date precipitation 2.55 0.65  
Year to date precipitation 7.17 3.37  
Snow  
Snow 0.00 in 0.30 in 14.00 in (1923)
Month to date snowfall 12.7 3.9  
Since 1 July snowfall 71.7 58.4  
Snow Depth 16.00 in    
Sea Level Pressure  
Sea Level Pressure 29.86 in    
Wind  
Wind Speed 6 mph (South)    
Max Wind Speed 13 mph    
Max Gust Speed 17 mph    
Visibility 5 miles    
Events Fog , Rain , Thunderstorm    
T = Trace of Precipitation, MM = Missing Value Source: NWS Daily Summary

Daily Weather History Graph

Daily Weather History Graph

Search for Another Location

Airport or City:

Trip Planner

Search our weather history database for the weather conditions in past years. The results will help you decide how hot, cold, wet, or windy it might be!

Date:

Astronomy

Mar. 12, 2012 Rise Set
Actual Time 7:55 AM EDT 7:41 PM EDT
Civil Twilight 7:26 AM EDT 8:10 PM EDT
Nautical Twilight 6:53 AM EDT 8:44 PM EDT
Astronomical Twilight 6:18 AM EDT 9:18 PM EDT
Moon 12:16 AM EDT (3/12) 10:02 AM EDT (3/12)
Length of Visible Light 12h 43m
Length of Day
11h 46m
Waning Gibbous, 76% of the Moon is Illuminated
Mar 12
Waning Gibbous
Mar 14
Last Quarter
Mar 22
New
Mar 30
First Quarter
Apr 6
Full

Hourly Weather History & Observations

Time (EDT) Temp. Windchill Dew Point Humidity Pressure Visibility Wind Dir Wind Speed Gust Speed Precip Events Conditions
12:53 AM 37.9 °F - 25.0 °F 60% 30.15 in 10.0 mi Calm Calm - N/A   Clear
1:53 AM 36.0 °F 32.1 °F 26.1 °F 67% 30.13 in 10.0 mi East 4.6 mph - N/A   Clear
2:53 AM 37.0 °F 33.3 °F 27.0 °F 67% 30.12 in 10.0 mi SSE 4.6 mph - N/A   Clear
3:53 AM 41.0 °F 38.0 °F 28.0 °F 60% 30.09 in 10.0 mi SSE 4.6 mph - N/A   Clear
4:53 AM 36.0 °F 33.3 °F 28.0 °F 73% 30.07 in 10.0 mi ESE 3.5 mph - N/A   Clear
5:53 AM 42.1 °F 38.4 °F 30.0 °F 62% 30.05 in 10.0 mi ESE 5.8 mph - N/A   Clear
6:53 AM 46.0 °F 42.5 °F 30.9 °F 56% 30.02 in 10.0 mi SE 6.9 mph - N/A   Mostly Cloudy
7:53 AM 46.9 °F - 30.9 °F 54% 30.01 in 10.0 mi SE 6.9 mph - N/A   Overcast
8:26 AM 44.6 °F 40.7 °F 35.6 °F 71% 29.98 in 7.0 mi SSE 6.9 mph - 0.01 in Rain Light Rain
8:53 AM 43.0 °F 39.5 °F 37.9 °F 82% 30.00 in 5.0 mi SE 5.8 mph - 0.07 in Rain Light Rain
9:36 AM 44.6 °F 40.7 °F 42.8 °F 93% 29.97 in 3.0 mi SSE 6.9 mph - 0.05 in Rain Rain
9:53 AM 45.0 °F 41.8 °F 42.1 °F 90% 29.98 in 6.0 mi SE 5.8 mph - 0.06 in Rain Light Rain
10:28 AM 44.6 °F 39.7 °F 42.8 °F 93% 29.95 in 5.0 mi SSE 9.2 mph - 0.01 in Rain Light Rain
10:53 AM 44.1 °F 39.0 °F 42.1 °F 93% 29.96 in 6.0 mi SSE 9.2 mph - 0.02 in   Overcast
11:08 AM 44.6 °F 40.7 °F 42.8 °F 93% 29.93 in 2.0 mi SSE 6.9 mph - 0.00 in Rain Light Rain
11:18 AM 44.6 °F 40.7 °F 42.8 °F 93% 29.93 in 3.0 mi SSE 6.9 mph - 0.00 in Rain Light Rain
11:53 AM 45.0 °F 40.6 °F 44.1 °F 97% 29.95 in 4.0 mi SSE 8.1 mph - 0.04 in Rain Light Rain
12:53 PM 46.9 °F - 45.0 °F 93% 29.92 in 7.0 mi SSE 6.9 mph - 0.00 in   Overcast
1:32 PM 46.4 °F 42.4 °F 44.6 °F 93% 29.87 in 1.8 mi SSE 8.1 mph - N/A   Overcast
1:37 PM 46.4 °F 42.9 °F 44.6 °F 93% 29.87 in 1.5 mi SSE 6.9 mph - N/A   Overcast
1:43 PM 46.4 °F 42.4 °F 46.4 °F 100% 29.86 in 2.0 mi SSE 8.1 mph - N/A   Overcast
1:53 PM 48.0 °F - 46.0 °F 93% 29.89 in 4.0 mi SSE 6.9 mph - N/A   Overcast
2:23 PM 48.2 °F - 46.4 °F 93% 29.84 in 1.8 mi SSE 8.1 mph - N/A   Overcast
2:26 PM 48.2 °F - 46.4 °F 93% 29.84 in 1.0 mi SSE 8.1 mph - N/A   Overcast
2:34 PM 48.2 °F - 46.4 °F 93% 29.83 in 0.5 mi SSE 10.4 mph - N/A Fog Fog
2:53 PM 48.9 °F - 48.0 °F 97% 29.84 in 0.2 mi SE 8.1 mph - N/A Fog Fog
3:53 PM 51.1 °F - 50.0 °F 96% 29.80 in 0.2 mi SSE 8.1 mph - N/A Fog Fog
4:12 PM 51.8 °F - 51.8 °F 100% 29.77 in 1.2 mi SSE 10.4 mph - N/A   Overcast
4:15 PM 51.8 °F - 51.8 °F 100% 29.77 in 2.0 mi SSE 9.2 mph - N/A   Overcast
4:25 PM 53.6 °F - 51.8 °F 94% 29.75 in 4.0 mi SSE 9.2 mph - N/A   Overcast
4:32 PM 53.6 °F - 51.8 °F 94% 29.75 in 4.0 mi SSE 8.1 mph - N/A   Overcast
4:39 PM 51.8 °F - 51.8 °F 100% 29.76 in 4.0 mi South 8.1 mph - N/A   Overcast
4:47 PM 51.8 °F - 51.8 °F 100% 29.75 in 2.5 mi South 4.6 mph - 0.02 in Rain , Thunderstorm Thunderstorms and Rain
4:53 PM 53.1 °F - 52.0 °F 96% 29.78 in 1.5 mi Calm Calm - 0.05 in Rain , Thunderstorm Heavy Thunderstorms and Rain
4:57 PM 51.8 °F - 51.8 °F 100% 29.77 in 1.0 mi West 10.4 mph - 0.02 in Rain , Thunderstorm Heavy Thunderstorms and Rain
5:04 PM 51.8 °F - 50.0 °F 94% 29.75 in 1.0 mi WSW 5.8 mph 17.3 mph 0.08 in Rain , Thunderstorm Heavy Thunderstorms and Rain
5:08 PM 51.8 °F - 48.2 °F 88% 29.76 in 1.5 mi SW 11.5 mph - 0.10 in Rain , Thunderstorm Thunderstorms and Rain
5:10 PM 50.0 °F - 48.2 °F 94% 29.76 in 2.0 mi SW 11.5 mph 17.3 mph 0.10 in Rain , Thunderstorm Thunderstorms and Rain
5:18 PM 48.2 °F - 46.4 °F 93% 29.75 in 6.0 mi South 6.9 mph 17.3 mph 0.12 in Rain , Thunderstorm Light Thunderstorms and Rain
5:27 PM 48.2 °F - 48.2 °F 100% 29.74 in 10.0 mi South 8.1 mph - 0.12 in   Overcast
5:53 PM 46.9 °F - 45.0 °F 93% 29.74 in 10.0 mi South 4.6 mph - 0.12 in Rain Light Rain
6:22 PM 46.4 °F 44.3 °F 44.6 °F 93% 29.73 in 1.5 mi Variable 4.6 mph - 0.05 in Rain Heavy Rain
6:26 PM 48.2 °F - 44.6 °F 87% 29.72 in 1.0 mi Variable 6.9 mph - 0.20 in Rain Heavy Rain
6:31 PM 48.2 °F - 46.4 °F 93% 29.72 in 1.5 mi SSW 5.8 mph - 0.26 in Rain Heavy Rain
6:33 PM 48.2 °F - 46.4 °F 93% 29.72 in 2.0 mi SSW 4.6 mph - 0.26 in Rain Heavy Rain
6:41 PM 48.2 °F - 46.4 °F 93% 29.72 in 3.0 mi SW 5.8 mph - 0.29 in Rain Rain
6:49 PM 48.2 °F - 46.4 °F 93% 29.72 in 2.5 mi SSW 5.8 mph - 0.33 in Rain Rain
6:53 PM 48.0 °F - 46.0 °F 93% 29.74 in 3.0 mi SSW 6.9 mph - 0.34 in Rain Rain
7:53 PM 48.9 °F - 46.9 °F 93% 29.72 in 10.0 mi SSW 6.9 mph - 0.07 in   Overcast
8:53 PM 48.0 °F - 45.0 °F 89% 29.74 in 10.0 mi SW 9.2 mph - N/A   Scattered Clouds
9:07 PM 46.4 °F 42.9 °F 44.6 °F 93% 29.72 in 10.0 mi SW 6.9 mph - N/A   Mostly Cloudy
9:23 PM 46.4 °F 42.9 °F 44.6 °F 93% 29.73 in 10.0 mi WSW 6.9 mph - N/A   Scattered Clouds
9:53 PM 45.0 °F 41.2 °F 43.0 °F 93% 29.76 in 10.0 mi WSW 6.9 mph - N/A   Scattered Clouds
10:53 PM 44.1 °F 40.8 °F 42.1 °F 93% 29.77 in 10.0 mi West 5.8 mph - N/A   Clear
11:53 PM 42.1 °F 38.4 °F 41.0 °F 96% 29.77 in 8.0 mi WSW 5.8 mph - N/A   Clear